[[{"header":{"parameterUnit":"m.s-1","parameterCategory":1,"la1":30.2991,"la2":30.254,"lo1":-89.0895,"lo2":-89.0444,"dy":0.0017,"dx":0.0017,"nx":28,"ny":28,"refTime":"2025-06-22T03:00:00:Z","depth":0,"parameterNumber":2,"parameterNumberName":"U-component_of_WINDS"},"data":[0,0,0,0,0,0,0,0,0,0,0,0,0,0,0,0,0,0,0,0,0,0,0,0,0,0,0,0,0,0,0,0,0,0,0,0,0,0,0,0,0,0,0,0,0,0,0,0,0,0,0,0,0,0,0,0,0,0,-2.4982,-2.4982,0,-2.4949,-2.4949,-2.4948,-2.4881,-2.488,-2.4878,-2.4877,-2.4844,-2.4844,-2.4844,0,0,0,0,0,0,0,0,0,0,0,0,0,-2.4989,-2.499,-2.4982,-2.4982,-2.4981,-2.4949,-2.4949,-2.4948,-2.4881,-2.488,-2.4878,-2.4877,-2.4843,-2.4844,-2.4844,0,0,0,0,0,0,0,0,0,0,0,0,0,-2.4974,-2.499,-2.4982,-2.4944,-2.494,-2.4949,-2.4949,-2.4948,-2.4882,-2.488,-2.4878,-2.4876,-2.4843,-2.4844,-2.4844,-2.4888,0,0,-2.4846,-2.4846,0,0,0,0,0,0,0,0,-2.4975,-2.4974,-2.495,-2.4947,-2.4942,-2.4917,-2.4939,-2.4928,-2.4882,-2.4904,-2.4877,-2.4875,-2.487,-2.4868,-2.4866,-2.4886,-2.4885,-2.4846,-2.4846,-2.4847,-2.4847,0,0,0,0,0,0,0,-2.4976,-2.4975,-2.4969,-2.495,-2.4945,-2.4929,-2.4925,-2.4936,-2.4898,-2.4902,-2.4897,-2.4894,-2.4867,-2.4866,-2.4865,-2.4884,-2.4846,-2.4846,-2.4847,-2.4847,-2.494,-2.4942,0,0,0,0,0,0,-2.4983,-2.4976,-2.497,-2.4968,-2.4954,-2.4931,-2.4926,-2.4927,-2.4898,-2.4892,-2.4896,-2.4891,-2.4866,-2.4864,-2.4863,-2.4913,-2.4847,-2.4847,-2.4847,-2.4938,-2.4941,-2.4943,0,0,0,0,0,0,-2.4983,-2.4983,-2.4971,-2.4971,-2.4968,-2.4933,-2.4935,-2.4928,-2.4926,-2.4893,-2.4886,-2.4901,-2.4864,-2.4863,-2.4883,-2.4911,-2.4847,-2.4848,-2.4936,-2.4939,-2.4942,-2.5012,0,0,0,0,0,0,-2.4984,-2.4983,-2.4999,-2.4972,-2.4968,-2.499,-2.4937,-2.4928,-2.4927,-2.4921,-2.4897,-2.4891,-2.4863,-2.4882,-2.4883,-2.491,-2.4848,-2.4933,-2.4937,-2.4941,-2.5007,-2.5017,-2.5026,0,0,0,0,0,-2.4984,-2.5019,-2.5,-2.4999,-2.4987,-2.4992,-2.499,-2.4957,-2.493,-2.4945,-2.4925,-2.4891,-2.4908,-2.4885,-2.4885,-2.4913,-2.4931,-2.4936,-2.4941,-2.5002,-2.5015,-2.5026,0,0,0,0,0,0,-2.505,-2.5015,-2.4993,-2.502,-2.501,-2.4981,-2.4999,-2.4971,-2.4968,-2.4962,-2.4921,-2.4917,-2.4942,-2.493,-2.4905,-2.4955,-2.4914,-2.492,-2.4961,-2.4973,-2.4982,-2.4984,-2.4849,0,0,0,0,0,-2.5068,-2.5074,-2.5044,-2.5071,-2.5067,-2.5034,-2.5035,-2.5011,-2.4999,-2.4994,-2.4974,-2.4964,-2.4967,-2.4969,-2.497,-2.5006,-2.5,-2.5025,-2.5035,-2.5043,-2.5047,-2.5066,-2.5077,-2.4959,-2.4959,-2.4959,0,0,-2.5104,-2.5086,-2.5092,-2.5084,-2.5072,-2.5081,-2.5031,-2.5041,-2.5048,-2.4995,-2.5013,-2.4999,-2.4985,-2.5013,-2.5025,-2.5003,-2.5079,-2.5049,-2.5056,-2.5056,-2.5072,-2.5084,-2.5094,-2.4963,-2.4962,-2.4961,0,0,-2.5174,-2.5161,-2.5183,-2.5173,-2.5158,-2.5136,-2.5142,-2.5118,-2.5107,-2.5124,-2.5086,-2.5093,-2.5099,-2.5091,-2.5087,-2.5159,-2.5128,-2.5161,-2.5209,-2.5228,-2.5238,-2.5246,-2.5271,-2.5281,-2.5166,-2.5166,-2.5166,0,-2.5221,-2.5232,-2.5197,-2.5211,-2.5209,-2.5163,-2.5185,-2.5178,-2.5164,-2.5164,-2.5141,-2.5149,-2.5136,-2.5162,-2.518,-2.5179,-2.5184,-2.5162,-2.5239,-2.5247,-2.5254,-2.5278,-2.5288,-2.517,-2.5169,-2.5169,-2.5168,0,-2.529,-2.5299,-2.5319,-2.5306,-2.5307,-2.5325,-2.5294,-2.5299,-2.5276,-2.5258,-2.5277,-2.5261,-2.5258,-2.5263,-2.524,-2.5287,-2.5275,-2.5247,-2.5205,-2.527,-2.5291,-2.53,-2.5175,-2.5174,-2.5173,-2.5172,0,0,-2.5397,-2.5369,-2.5376,-2.5371,-2.5352,-2.5358,-2.5376,-2.5374,-2.5379,-2.5372,-2.5385,-2.5393,-2.5368,-2.5364,-2.534,-2.5358,-2.5416,-2.5327,-2.5326,-2.5344,-2.5467,-2.5488,-2.5499,-2.5397,-2.5398,-2.54,-2.5468,0,-2.5463,-2.5489,-2.546,-2.5493,-2.5501,-2.546,-2.5475,-2.5466,-2.5451,-2.5456,-2.5439,-2.5445,-2.541,-2.5408,-2.5424,-2.5406,-2.544,-2.54,-2.5409,-2.541,-2.5412,-2.551,-2.5531,-2.5596,-2.5477,-2.5478,-2.5479,0,-2.5541,-2.5538,-2.5572,-2.5553,-2.5556,-2.557,-2.5567,-2.5572,-2.5562,-2.555,-2.5548,-2.552,-2.5537,-2.5499,-2.5522,-2.5495,-2.5498,-2.549,-2.5492,-2.549,-2.5447,-2.551,-2.5616,-2.5626,-2.5492,-2.5491,-2.549,0,-2.5615,-2.5621,-2.5642,-2.5639,-2.5617,-2.5628,-2.562,-2.5608,-2.5609,-2.5608,-2.5608,-2.5609,-2.5608,-2.561,-2.5584,-2.5558,-2.5611,-2.5569,-2.5601,-2.5602,-2.5612,-2.5611,-2.5719,-2.5616,-2.5616,-2.5616,-2.5615,0,-2.569,-2.5712,-2.5675,-2.5688,-2.5712,-2.5681,-2.5706,-2.5694,-2.5684,-2.5694,-2.566,-2.5671,-2.5636,-2.5644,-2.5624,-2.5646,-2.5647,-2.5638,-2.5632,-2.564,-2.5641,-2.5639,-2.5634,-2.5618,-2.5618,-2.5617,-2.5617,0,-2.5776,-2.5752,-2.5772,-2.5751,-2.5747,-2.5766,-2.5748,-2.576,-2.5744,-2.5758,-2.5759,-2.5733,-2.5741,-2.5716,-2.5719,-2.5706,-2.5739,-2.5726,-2.5742,-2.5738,-2.577,-2.5767,-2.588,-2.5893,-2.5783,-2.5784,-2.5785,0,-2.5824,-2.5841,-2.5822,-2.5827,-2.5821,-2.5829,-2.583,-2.5801,-2.5804,-2.5796,-2.5809,-2.5814,-2.5816,-2.583,-2.5812,-2.5815,-2.5802,-2.5841,-2.5802,-2.581,-2.5802,-2.5801,-2.5802,-2.5849,-2.585,-2.5851,-2.5852,0,-2.5913,-2.5901,-2.5904,-2.5905,-2.5908,-2.5907,-2.5903,-2.591,-2.5878,-2.5884,-2.5892,-2.5894,-2.5898,-2.5904,-2.5904,-2.5896,-2.5869,-2.5865,-2.5872,-2.588,-2.5888,-2.5884,-2.5763,-2.5862,-2.5861,-2.586,-2.586,-2.5859,-2.5981,-2.5994,-2.5983,-2.5989,-2.5984,-2.5982,-2.5993,-2.5978,-2.5984,-2.5985,-2.5968,-2.598,-2.5972,-2.5969,-2.5964,-2.5974,-2.5956,-2.5966,-2.5969,-2.5971,-2.5977,-2.5889,-2.5974,-2.5973,-2.5973,-2.5973,-2.5973,0,-2.6067,-2.6059,-2.6065,-2.6061,-2.6067,-2.6042,-2.6038,-2.6044,-2.6055,-2.605,-2.6053,-2.6063,-2.6069,-2.6053,-2.6057,-2.6068,-2.6056,-2.607,-2.6068,-2.6067,-2.5993,-2.5986,-2.608,-2.608,-2.608,-2.608,-2.608,-2.608,-2.6112,-2.6133,-2.6121,-2.614,-2.6132,-2.6143,-2.6142,-2.6141,-2.6137,-2.615,-2.6155,-2.6145,-2.6136,-2.6139,-2.6144,-2.614,-2.6142,-2.6161,-2.6152,-2.6082,-2.6072,-2.6062,-2.6055,-2.6162,-2.6162,-2.6225,-2.6225,-2.6226]},{"header":{"parameterUnit":"m.s-1","parameterCategory":1,"la1":30.2991,"la2":30.254,"lo1":-89.0895,"lo2":-89.0444,"dy":0.0017,"dx":0.0017,"nx":28,"ny":28,"refTime":"2025-06-22T03:00:00:Z","depth":0,"parameterNumber":3,"parameterNumberName":"V-component_of_WINDS"},"data":[0,0,0,0,0,0,0,0,0,0,0,0,0,0,0,0,0,0,0,0,0,0,0,0,0,0,0,0,0,0,0,0,0,0,0,0,0,0,0,0,0,0,0,0,0,0,0,0,0,0,0,0,0,0,0,0,0,0,3.7411,3.7412,0,3.7434,3.7434,3.7434,3.7483,3.7484,3.7485,3.7486,3.7503,3.7503,3.7502,0,0,0,0,0,0,0,0,0,0,0,0,0,3.7406,3.7406,3.7411,3.7412,3.7412,3.7434,3.7434,3.7434,3.7483,3.7484,3.7485,3.7486,3.7503,3.7503,3.7502,0,0,0,0,0,0,0,0,0,0,0,0,0,3.7416,3.7406,3.7411,3.7439,3.7441,3.7434,3.7434,3.7434,3.7482,3.7484,3.7485,3.7487,3.7503,3.7503,3.7502,3.7468,0,0,3.75,3.75,0,0,0,0,0,0,0,0,3.7416,3.7416,3.7434,3.7437,3.744,3.7457,3.7439,3.7445,3.7482,3.7467,3.7486,3.7487,3.7486,3.7487,3.7488,3.7468,3.7469,3.75,3.7499,3.7499,3.7499,0,0,0,0,0,0,0,3.7415,3.7416,3.742,3.7435,3.7438,3.7449,3.7452,3.744,3.7467,3.7468,3.7472,3.7474,3.7488,3.7488,3.7488,3.7469,3.75,3.7499,3.7499,3.7498,3.7424,3.7422,0,0,0,0,0,0,3.7411,3.7415,3.7419,3.7421,3.7431,3.7447,3.7451,3.745,3.7468,3.7472,3.7473,3.7476,3.7489,3.7489,3.7489,3.745,3.7499,3.7498,3.7498,3.7425,3.7423,3.7422,0,0,0,0,0,0,3.7411,3.7411,3.7418,3.7419,3.7421,3.7446,3.7444,3.745,3.745,3.7471,3.7476,3.7468,3.749,3.749,3.7473,3.7452,3.7498,3.7497,3.7427,3.7425,3.7423,3.7372,0,0,0,0,0,0,3.741,3.741,3.7398,3.7418,3.742,3.7403,3.7443,3.7449,3.7449,3.7454,3.7468,3.7472,3.7491,3.7474,3.7472,3.7452,3.7497,3.7429,3.7426,3.7423,3.7376,3.7368,3.7362,0,0,0,0,0,3.741,3.7382,3.7398,3.7398,3.7406,3.7402,3.7403,3.7427,3.7447,3.7435,3.7449,3.7472,3.7455,3.7472,3.7471,3.7449,3.743,3.7427,3.7423,3.7379,3.737,3.7362,0,0,0,0,0,0,3.7357,3.7385,3.7403,3.7381,3.7389,3.741,3.7395,3.7416,3.7417,3.7421,3.7449,3.7452,3.7431,3.7439,3.7457,3.7417,3.7446,3.7442,3.7413,3.7404,3.7398,3.7396,3.7496,0,0,0,0,0,3.7343,3.7338,3.7363,3.7341,3.7344,3.7369,3.7368,3.7386,3.7394,3.7397,3.741,3.7416,3.7412,3.7409,3.7407,3.7378,3.7381,3.7362,3.7355,3.735,3.7345,3.7331,3.7323,3.741,3.741,3.741,0,0,3.7313,3.7328,3.7323,3.733,3.7339,3.7332,3.7371,3.7362,3.7357,3.7395,3.7381,3.739,3.7399,3.7376,3.7366,3.7381,3.7323,3.7345,3.734,3.7339,3.7327,3.7318,3.7311,3.7408,3.7408,3.7409,0,0,3.7256,3.7267,3.725,3.7258,3.7272,3.7289,3.7284,3.7303,3.7311,3.7298,3.7327,3.732,3.7313,3.7318,3.732,3.7267,3.7288,3.7265,3.7228,3.7214,3.7207,3.7201,3.7182,3.7174,3.7261,3.7261,3.7261,0,3.7216,3.7209,3.7238,3.7228,3.7231,3.7268,3.725,3.7256,3.7267,3.7267,3.7284,3.7277,3.7286,3.7265,3.7252,3.7252,3.7248,3.7263,3.7206,3.72,3.7195,3.7177,3.717,3.7258,3.7259,3.7259,3.7259,0,3.716,3.7155,3.714,3.7152,3.7152,3.7138,3.7164,3.7161,3.718,3.7195,3.718,3.7192,3.7193,3.719,3.7206,3.7171,3.718,3.7201,3.7231,3.7184,3.7167,3.716,3.7254,3.7255,3.7256,3.7257,0,0,3.7068,3.7098,3.7092,3.7098,3.7116,3.7112,3.71,3.7103,3.7099,3.7106,3.7096,3.709,3.7111,3.7112,3.713,3.7118,3.7075,3.7141,3.7142,3.7128,3.7036,3.7019,3.7011,3.709,3.7088,3.7087,3.7035,0,3.7014,3.6997,3.7023,3.6999,3.6994,3.703,3.702,3.7029,3.7043,3.704,3.7054,3.705,3.7077,3.7079,3.7068,3.7082,3.7057,3.7087,3.7079,3.7078,3.7075,3.7002,3.6984,3.6934,3.7029,3.7028,3.7027,0,3.6948,3.6954,3.693,3.6951,3.695,3.694,3.6945,3.6943,3.6954,3.6965,3.6968,3.6991,3.6979,3.7009,3.6993,3.7013,3.7012,3.7018,3.7017,3.7016,3.7049,3.6999,3.6919,3.6911,3.7017,3.7018,3.7019,0,3.6883,3.6884,3.6871,3.6875,3.6899,3.6891,3.69,3.6913,3.6914,3.6918,3.6919,3.6921,3.6922,3.6922,3.6945,3.6965,3.6926,3.6958,3.6934,3.6933,3.6923,3.6923,3.6841,3.6923,3.6923,3.6923,3.6924,0,3.6819,3.6803,3.6842,3.6833,3.6816,3.6846,3.6828,3.6841,3.6852,3.6846,3.6877,3.687,3.69,3.6896,3.6913,3.6898,3.6898,3.6905,3.691,3.6902,3.6901,3.6901,3.6904,3.6921,3.6922,3.6922,3.6923,0,3.6742,3.6768,3.6755,3.678,3.6786,3.6772,3.6792,3.6785,3.6802,3.6793,3.6793,3.6818,3.6815,3.6838,3.6839,3.6851,3.6826,3.6837,3.6823,3.6826,3.68,3.6802,3.6714,3.6704,3.6793,3.6792,3.6792,0,3.67,3.6688,3.6713,3.6712,3.672,3.6718,3.6719,3.6749,3.6749,3.6762,3.6752,3.6752,3.6754,3.6747,3.6765,3.6766,3.6776,3.6746,3.6776,3.6769,3.6775,3.6775,3.6774,3.6739,3.6737,3.6737,3.6736,0,3.6621,3.6635,3.6637,3.6643,3.6644,3.665,3.6658,3.6655,3.6688,3.6686,3.6684,3.6686,3.6688,3.6687,3.6692,3.67,3.6723,3.6727,3.6721,3.6712,3.6704,3.6708,3.6804,3.6728,3.6729,3.6729,3.673,3.673,3.656,3.6552,3.6568,3.6569,3.6579,3.6586,3.658,3.6597,3.6597,3.6603,3.662,3.6615,3.6627,3.6636,3.6643,3.6639,3.6653,3.6645,3.6643,3.664,3.6635,3.6706,3.664,3.664,3.664,3.664,3.664,0,3.6482,3.6495,3.6496,3.6507,3.6508,3.6532,3.6543,3.6541,3.6537,3.6548,3.6549,3.6548,3.6548,3.6566,3.6568,3.6562,3.6572,3.6561,3.6561,3.6563,3.6622,3.6627,3.6552,3.6552,3.6552,3.6552,3.6552,3.6553,3.6442,3.643,3.6446,3.6439,3.6451,3.6449,3.6452,3.6459,3.6467,3.6465,3.6466,3.6479,3.6492,3.6496,3.6497,3.6502,3.6501,3.6486,3.6495,3.655,3.6558,3.6566,3.6571,3.6486,3.6486,3.6435,3.6435,3.6434]}]]